EW8080 Weather Reports


Display with metric or nautical units.
time (UTC)temp
F
wind
direction
speed
MPH
gust
MPH
rain 1hr
in
rain 24hr
in
rain mn
in
humidity
%
barometer
mb
20260906095001 61 328 4.0 10.0 0.00 0.00 0.00 90 1013.2
20260906094001 60 24 3.0 7.0 0.00 0.00 0.00 91 1013.4
20260906093001 60 45 2.0 7.0 0.00 0.00 0.00 91 1013.2
20260906092001 60 35 4.0 7.0 0.00 0.00 0.00 91 1013.0
20260906091023 61 359 3.0 6.0 0.00 0.00 0.00 90 1012.9
20260906090002 61 355 4.0 5.0 0.00 0.00 0.00 90 1012.6
20260906085025 61 351 3.0 5.0 0.00 0.00 0.00 91 1012.6
20260906084001 61 59 1.0 5.0 0.00 0.00 0.00 90 1012.8
20260906083023 61 27 1.0 6.0 0.00 0.00 0.00 90 1012.7
20260906082002 61 23 3.0 6.0 0.00 0.00 0.00 90 1012.6
20260906081002 61 350 4.0 6.0 0.00 0.00 0.00 91 1012.4
20260906080002 61 39 4.0 7.0 0.00 0.00 0.00 91 1012.4
20260906075023 61 42 3.0 7.0 0.00 0.00 0.00 91 1012.4
20260906074002 61 350 2.0 6.0 0.00 0.00 0.00 91 1012.3
20260906073002 61 24 3.0 5.0 0.00 0.00 0.00 91 1012.5
20260906072002 61 330 2.0 6.0 0.00 0.00 0.00 91 1012.4
20260906071002 61 359 2.0 8.0 0.00 0.00 0.00 91 1012.4
20260906070002 61 34 3.0 8.0 0.00 0.00 0.00 91 1012.5
20260906065003 62 357 3.0 9.0 0.00 0.00 0.00 91 1012.4
20260906064023 62 356 4.0 9.0 0.00 0.00 0.00 91 1012.2
20260906063023 62 2 5.0 8.0 0.00 0.00 0.00 90 1012.6
20260906062002 62 3 5.0 8.0 0.00 0.00 0.00 91 1012.4
20260906061002 62 349 5.0 8.0 0.00 0.00 0.00 90 1012.5
20260906060002 62 343 5.0 9.0 0.00 0.00 0.00 90 1012.5
20260906055003 62 355 8.0 9.0 0.00 0.00 0.00 90 1012.7
20260906054024 62 12 4.0 8.0 0.00 0.00 0.00 89 1012.8
20260906053002 62 1 8.0 8.0 0.00 0.00 0.00 89 1012.7
20260906052023 62 353 5.0 9.0 0.00 0.00 0.00 89 1012.8
20260906051003 62 324 3.0 9.0 0.00 0.00 0.00 89 1012.8
20260906050003 62 24 3.0 13.0 0.00 0.00 0.00 89 1012.7
20260906045003 62 342 3.0 13.0 0.00 0.00 0.00 89 1012.7
20260906044003 62 348 7.0 8.0 0.00 0.00 0.00 88 1012.7
20260906043024 62 4 4.0 10.0 0.00 0.00 0.00 88 1012.5
20260906042003 62 359 4.0 10.0 0.00 0.00 0.00 88 1012.5
20260906041024 62 4 5.0 7.0 0.00 0.00 0.00 88 1012.5
20260906040003 62 7 4.0 7.0 0.00 0.00 0.00 87 1012.4
20260906034956 62 2 3.0 8.0 0.00 0.00 0.00 87 1012.5
20260906033956 62 3 3.0 8.0 0.00 0.00 0.00 87 1012.5
20260906032956 63 354 5.0 7.0 0.00 0.00 0.00 87 1012.4
20260906031956 63 337 2.0 7.0 0.00 0.00 0.00 86 1012.4
20260906030956 63 339 2.0 7.0 0.00 0.00 0.00 86 1012.3
20260906025956 63 331 4.0 7.0 0.00 0.00 0.00 86 1012.4
20260906025018 63 317 3.0 5.0 0.00 0.00 0.00 86 1012.5
20260906023956 64 278 3.0 5.0 0.00 0.00 0.00 84 1012.6
20260906022956 64 334 1.0 5.0 0.00 0.00 0.00 84 1012.6
20260906022017 64 333 0.0 4.0 0.00 0.00 0.00 83 1012.4
20260906021017 64 339 1.0 5.0 0.00 0.00 0.00 83 1012.4
20260906015956 64 45 1.0 5.0 0.00 0.00 0.00 83 1012.4
20260906015017 64 1 2.0 5.0 0.00 0.00 0.00 83 1012.5
20260906013956 64 3 1.0 5.0 0.00 0.00 0.00 83 1012.5
20260906012956 64 351 2.0 5.0 0.00 0.00 0.00 84 1012.3
20260906011956 64 320 3.0 4.0 0.00 0.00 0.00 84 1012.3
20260906010956 64 92 0.0 7.0 0.00 0.00 0.00 84 1012.3
20260906005956 64 75 1.0 7.0 0.00 0.00 0.00 84 1012.3
20260906004957 63 347 4.0 7.0 0.00 0.00 0.00 85 1012.2
20260906004018 64 24 1.0 4.0 0.00 0.00 0.00 84 1012.2
20260906002956 63 50 1.0 4.0 0.00 0.00 0.00 83 1012.1
20260906001957 64 337 2.0 3.0 0.00 0.00 0.00 83 1012.1
20260906000957 64 341 1.0 3.0 0.00 0.00 0.00 82 1012.1
20260905235957 64 94 0.0 2.0 0.00 0.00 0.00 81 1012.1
20260905234958 64 100 1.0 2.0 0.00 0.00 0.00 81 1012.0
20260905233957 64 62 1.0 2.0 0.00 0.00 0.00 80 1011.8
20260905232957 65 107 0.0 3.0 0.00 0.00 0.00 80 1011.9
20260905231957 65 170 0.0 3.0 0.00 0.00 0.00 80 1011.9
20260905230957 65 142 0.0 3.0 0.00 0.00 0.00 79 1011.9
20260905230018 66 294 0.0 4.0 0.00 0.00 0.00 79 1012.0
20260905224957 66 26 2.0 7.0 0.00 0.00 0.00 78 1011.9
20260905223957 66 62 1.0 8.0 0.00 0.00 0.00 78 1011.9
20260905222957 67 46 2.0 10.0 0.00 0.00 0.00 77 1012.0
20260905221957 67 19 3.0 10.0 0.00 0.00 0.00 77 1012.0
20260905220957 67 60 3.0 8.0 0.00 0.00 0.00 77 1011.8
20260905215957 68 89 3.0 8.0 0.00 0.00 0.00 77 1011.6
20260905214957 68 48 4.0 11.0 0.00 0.00 0.00 76 1011.3
20260905213958 68 87 4.0 13.0 0.00 0.00 0.00 76 1011.1
20260905212957 69 21 6.0 13.0 0.00 0.00 0.00 76 1011.1
20260905211958 69 86 3.0 13.0 0.00 0.00 0.00 76 1010.6
20260905210958 69 36 6.0 13.0 0.00 0.00 0.00 75 1011.0
20260905205958 70 88 5.0 10.0 0.00 0.00 0.00 75 1010.7
20260905205019 70 52 5.0 12.0 0.00 0.00 0.00 74 1010.6
20260905203958 71 36 6.0 12.0 0.00 0.00 0.00 72 1010.4
20260905202958 71 59 4.0 12.0 0.00 0.00 0.00 73 1010.3
20260905201958 72 85 6.0 11.0 0.00 0.00 0.00 73 1010.3
20260905200958 71 28 3.0 13.0 0.00 0.00 0.00 74 1010.2
20260905195958 72 17 8.0 13.0 0.00 0.00 0.00 73 1010.1
20260905194959 72 23 4.0 8.0 0.00 0.00 0.00 75 1010.3
20260905193958 73 106 3.0 15.0 0.00 0.00 0.00 74 1010.4
20260905192958 74 101 6.0 15.0 0.00 0.00 0.00 73 1010.1
20260905191958 73 13 5.0 16.0 0.00 0.00 0.00 73 1010.3
20260905190958 72 33 8.0 16.0 0.00 0.00 0.00 74 1010.1
20260905190019 72 348 11.0 15.0 0.00 0.00 0.00 71 1010.1
20260905184958 74 43 6.0 15.0 0.00 0.00 0.00 71 1010.1
20260905183958 74 39 5.0 15.0 0.00 0.00 0.00 73 1010.1
20260905182958 74 3 5.0 12.0 0.00 0.00 0.00 70 1010.3
20260905181958 74 13 2.0 12.0 0.00 0.00 0.00 74 1010.2
20260905180959 73 66 4.0 13.0 0.00 0.00 0.00 73 1010.3
20260905175959 74 8 5.0 13.0 0.00 0.00 0.00 71 1010.4
20260905174959 74 43 4.0 10.0 0.00 0.00 0.00 72 1010.3
20260905173959 74 353 6.0 10.0 0.00 0.00 0.00 70 1010.1
20260905172959 74 34 6.0 10.0 0.00 0.00 0.00 74 1009.9
20260905171959 73 45 5.0 14.0 0.00 0.00 0.00 73 1010.1
20260905170959 73 56 5.0 14.0 0.00 0.00 0.00 73 1010.1
20260905170000 74 220 4.0 13.0 0.00 0.00 0.00 72 1010.0
20260905164959 74 16 4.0 13.0 0.00 0.00 0.00 71 1010.1
20260905163959 74 54 2.0 17.0 0.00 0.00 0.00 71 1010.1
20260905162959 74 354 8.0 17.0 0.00 0.00 0.00 71 1010.0
20260905161959 76 4 8.0 17.0 0.00 0.00 0.00 69 1009.4
20260905160959 76 12 7.0 17.0 0.00 0.00 0.00 69 1009.5
20260905155959 75 98 5.0 17.0 0.00 0.00 0.00 71 1009.4
20260905154959 76 9 10.0 15.0 0.00 0.00 0.00 67 1009.5
20260905154020 75 356 6.0 21.0 0.00 0.00 0.00 68 1009.2
20260905153020 76 2 9.0 21.0 0.00 0.00 0.00 66 1009.0
20260905151959 75 2 11.0 18.0 0.00 0.00 0.00 66 1009.1
20260905151000 76 349 8.0 14.0 0.00 0.00 0.00 68 1009.1
20260905145959 77 353 6.0 14.0 0.00 0.00 0.00 68 1009.4
20260905145000 78 20 3.0 15.0 0.00 0.00 0.00 68 1009.4
20260905144000 76 8 7.0 16.0 0.00 0.00 0.00 66 1009.4
20260905143000 77 17 5.0 16.0 0.00 0.00 0.00 67 1009.3
20260905142000 77 352 8.0 16.0 0.00 0.00 0.00 66 1009.1
20260905141000 77 11 8.0 15.0 0.00 0.00 0.00 66 1009.0
20260905140000 80 352 4.0 12.0 0.00 0.00 0.00 65 1009.1
20260905135000 79 331 5.0 12.0 0.00 0.00 0.00 70 1009.2
20260905134000 77 43 3.0 15.0 0.00 0.00 0.00 72 1009.2
20260905133021 76 23 4.0 16.0 0.00 0.00 0.00 73 1009.3
20260905132000 74 349 11.0 16.0 0.00 0.00 0.00 72 1009.1
20260905131022 74 20 4.0 16.0 0.00 0.00 0.00 77 1009.0
20260905130000 72 360 6.0 16.0 0.00 0.00 0.00 77 1009.2
20260905125000 70 5 6.0 17.0 0.00 0.00 0.00 81 1009.1
20260905124021 68 1 8.0 17.0 0.00 0.00 0.00 82 1008.9
20260905123000 67 360 9.0 17.0 0.00 0.00 0.00 84 1008.8
20260905122000 66 359 6.0 12.0 0.00 0.00 0.00 86 1008.6
20260905121000 65 4 6.0 12.0 0.00 0.00 0.00 87 1008.8
20260905120000 64 351 7.0 11.0 0.00 0.00 0.00 87 1008.6
20260905115022 64 343 8.0 11.0 0.00 0.00 0.00 87 1008.7
20260905114000 64 358 5.0 11.0 0.00 0.00 0.00 88 1008.7
20260905113001 63 345 10.0 11.0 0.00 0.00 0.00 88 1008.6
20260905112001 63 359 5.0 10.0 0.00 0.00 0.00 88 1008.8
20260905111002 63 344 7.0 9.0 0.00 0.00 0.00 88 1008.5
20260905110001 63 358 6.0 11.0 0.00 0.00 0.00 88 1008.4
20260905105001 62 344 6.0 11.0 0.00 0.00 0.00 88 1008.2
20260905104001 62 347 5.0 12.0 0.00 0.00 0.00 88 1008.2
20260905103001 62 355 6.0 12.0 0.00 0.00 0.00 88 1008.1
20260905102001 63 351 7.0 12.0 0.00 0.00 0.00 87 1008.1
20260905101001 63 346 8.0 13.0 0.00 0.00 0.00 87 1008.0
20260905100001 63 356 8.0 13.0 0.00 0.00 0.00 87 1008.0